| time (UTC) | temp C | wind direction | speed KPH | gust KPH | rain 1hr cm | rain 24hr cm | rain mn cm | humidity % | barometer mb |
| 20260508092335 | 6 | 13 | 0.0 | 0.0 | 0.00 | 0.00 | 0.00 | 80 | 1009.3 |
| 20260508091833 | 6 | 13 | 0.0 | 0.0 | 0.00 | 0.00 | 0.00 | 81 | 1009.1 |
| 20260508091329 | 7 | 13 | 0.0 | 0.0 | 0.00 | 0.00 | 0.00 | 81 | 1009.4 |
| 20260508090827 | 7 | 13 | 0.0 | 1.6 | 0.00 | 0.00 | 0.00 | 80 | 1009.2 |
| 20260508090325 | 7 | 13 | 0.0 | 0.0 | 0.00 | 0.00 | 0.00 | 80 | 1009.7 |
| 20260508085820 | 7 | 13 | 0.0 | 0.0 | 0.00 | 0.00 | 0.00 | 79 | 1009.5 |
| 20260508085318 | 7 | 13 | 0.0 | 1.6 | 0.00 | 0.00 | 0.00 | 79 | 1009.6 |
| 20260508084814 | 7 | 13 | 0.0 | 0.0 | 0.00 | 0.00 | 0.00 | 75 | 1009.6 |
| 20260508084311 | 7 | 13 | 0.0 | 0.0 | 0.00 | 0.00 | 0.00 | 72 | 1009.6 |
| 20260508083808 | 8 | 13 | 0.0 | 0.0 | 0.00 | 0.00 | 0.00 | 71 | 1009.4 |
| 20260508083305 | 7 | 13 | 0.0 | 0.0 | 0.00 | 0.00 | 0.00 | 71 | 1009.5 |
| 20260508082800 | 7 | 13 | 0.0 | 0.0 | 0.00 | 0.00 | 0.00 | 74 | 1009.3 |
| 20260508082258 | 7 | 13 | 0.0 | 0.0 | 0.00 | 0.00 | 0.00 | 75 | 1009.1 |
| 20260508081755 | 7 | 13 | 0.0 | 0.0 | 0.00 | 0.00 | 0.00 | 74 | 1009.1 |
| 20260508081251 | 7 | 13 | 0.0 | 0.0 | 0.00 | 0.00 | 0.00 | 74 | 1009.1 |
| 20260508080749 | 7 | 13 | 0.0 | 0.0 | 0.00 | 0.00 | 0.00 | 74 | 1009.2 |
| 20260508080247 | 7 | 13 | 0.0 | 0.0 | 0.00 | 0.00 | 0.00 | 74 | 1009.1 |
| 20260508075743 | 7 | 13 | 0.0 | 1.6 | 0.00 | 0.00 | 0.00 | 76 | 1009.3 |
| 20260508075239 | 7 | 13 | 0.0 | 0.0 | 0.00 | 0.00 | 0.00 | 76 | 1009.2 |
| 20260508074737 | 7 | 13 | 0.0 | 1.6 | 0.00 | 0.00 | 0.00 | 77 | 1009.3 |
| 20260508074235 | 8 | 13 | 0.0 | 1.6 | 0.00 | 0.00 | 0.00 | 77 | 1009.4 |
| 20260508073731 | 8 | 13 | 1.6 | 3.2 | 0.00 | 0.00 | 0.00 | 74 | 1009.4 |
| 20260508073230 | 8 | 13 | 4.8 | 4.8 | 0.00 | 0.00 | 0.00 | 74 | 1009.3 |
| 20260508072725 | 8 | 13 | 1.6 | 3.2 | 0.00 | 0.00 | 0.00 | 77 | 1009.4 |
| 20260508072222 | 7 | 14 | 0.0 | 0.0 | 0.00 | 0.00 | 0.00 | 79 | 1009.3 |
| 20260508071720 | 8 | 14 | 0.0 | 0.0 | 0.00 | 0.00 | 0.00 | 78 | 1009.3 |
| 20260508071218 | 9 | 14 | 0.0 | 3.2 | 0.00 | 0.00 | 0.00 | 75 | 1009.4 |
| 20260508070715 | 8 | 11 | 3.2 | 3.2 | 0.00 | 0.00 | 0.00 | 75 | 1009.6 |
| 20260508070214 | 8 | 12 | 0.0 | 1.6 | 0.00 | 0.00 | 0.00 | 76 | 1009.5 |
| 20260508065710 | 10 | 16 | 1.6 | 3.2 | 0.00 | 0.00 | 0.00 | 74 | 1009.4 |
| 20260508065209 | 9 | 19 | 4.8 | 4.8 | 0.00 | 0.00 | 0.00 | 74 | 1009.4 |
| 20260508064706 | 8 | 352 | 1.6 | 3.2 | 0.00 | 0.00 | 0.00 | 76 | 1009.6 |
| 20260508064204 | 8 | 353 | 1.6 | 1.6 | 0.00 | 0.00 | 0.00 | 78 | 1009.4 |
| 20260508063701 | 9 | 353 | 0.0 | 1.6 | 0.00 | 0.00 | 0.00 | 75 | 1009.7 |
| 20260508063159 | 9 | 352 | 0.0 | 1.6 | 0.00 | 0.00 | 0.00 | 74 | 1009.6 |
| 20260508062656 | 9 | 352 | 0.0 | 1.6 | 0.00 | 0.00 | 0.00 | 74 | 1009.7 |
| 20260508062153 | 10 | 353 | 1.6 | 1.6 | 0.00 | 0.00 | 0.00 | 74 | 1009.8 |
| 20260508061650 | 10 | 358 | 3.2 | 4.8 | 0.00 | 0.00 | 0.00 | 73 | 1009.7 |
| 20260508061148 | 10 | 1 | 1.6 | 3.2 | 0.00 | 0.00 | 0.00 | 73 | 1009.8 |
| 20260508060644 | 10 | 11 | 4.8 | 8.0 | 0.00 | 0.00 | 0.00 | 74 | 1009.7 |
| 20260508060141 | 9 | 2 | 4.8 | 4.8 | 0.00 | 0.00 | 0.00 | 75 | 1009.7 |
| 20260508055637 | 9 | 332 | 0.0 | 3.2 | 0.00 | 0.00 | 0.00 | 77 | 1009.9 |
| 20260508055134 | 9 | 327 | 1.6 | 1.6 | 0.00 | 0.00 | 0.00 | 76 | 1009.7 |
| 20260508054630 | 10 | 342 | 1.6 | 4.8 | 0.00 | 0.00 | 0.00 | 73 | 1009.7 |
| 20260508054128 | 10 | 359 | 1.6 | 4.8 | 0.00 | 0.00 | 0.00 | 73 | 1009.7 |
| 20260508053625 | 10 | 9 | 4.8 | 9.7 | 0.00 | 0.00 | 0.00 | 73 | 1009.7 |
| 20260508053122 | 9 | 331 | 4.8 | 8.0 | 0.00 | 0.00 | 0.00 | 77 | 1009.7 |
| 20260508052620 | 9 | 125 | 1.6 | 1.6 | 0.00 | 0.00 | 0.00 | 75 | 1009.8 |
| 20260508052116 | 10 | 125 | 0.0 | 0.0 | 0.00 | 0.00 | 0.00 | 73 | 1009.5 |
| 20260508051612 | 10 | 125 | 0.0 | 0.0 | 0.00 | 0.00 | 0.00 | 72 | 1009.8 |
| 20260508051108 | 10 | 125 | 0.0 | 1.6 | 0.00 | 0.00 | 0.00 | 71 | 1009.5 |
| 20260508050604 | 10 | 125 | 0.0 | 0.0 | 0.00 | 0.00 | 0.00 | 70 | 1009.7 |
| 20260508045558 | 11 | 125 | 1.6 | 1.6 | 0.00 | 0.00 | 0.00 | 67 | 1009.6 |
| 20260508045056 | 11 | 125 | 0.0 | 1.6 | 0.00 | 0.00 | 0.00 | 67 | 1009.6 |
| 20260508044553 | 11 | 125 | 0.0 | 0.0 | 0.00 | 0.00 | 0.00 | 67 | 1009.5 |
| 20260508044049 | 10 | 125 | 0.0 | 0.0 | 0.00 | 0.00 | 0.00 | 71 | 1009.5 |
| 20260508043545 | 10 | 125 | 0.0 | 0.0 | 0.00 | 0.00 | 0.00 | 71 | 1009.4 |
| 20260508043043 | 10 | 125 | 0.0 | 0.0 | 0.00 | 0.00 | 0.00 | 70 | 1009.6 |
| 20260508042539 | 10 | 125 | 0.0 | 0.0 | 0.00 | 0.00 | 0.00 | 69 | 1009.6 |
| 20260508042037 | 11 | 125 | 0.0 | 0.0 | 0.00 | 0.00 | 0.00 | 67 | 1009.7 |
| 20260508041533 | 11 | 125 | 0.0 | 1.6 | 0.00 | 0.00 | 0.00 | 67 | 1009.6 |
| 20260508041030 | 11 | 125 | 0.0 | 0.0 | 0.00 | 0.00 | 0.00 | 67 | 1009.8 |
| 20260508040527 | 11 | 125 | 0.0 | 1.6 | 0.00 | 0.00 | 0.00 | 66 | 1009.7 |
| 20260508040024 | 11 | 125 | 0.0 | 0.0 | 0.00 | 0.00 | 0.00 | 68 | 1009.7 |
| 20260508035521 | 11 | 125 | 0.0 | 0.0 | 0.00 | 0.00 | 0.00 | 67 | 1009.8 |
| 20260508035018 | 11 | 125 | 0.0 | 0.0 | 0.00 | 0.00 | 0.00 | 65 | 1009.8 |
| 20260508034515 | 11 | 124 | 0.0 | 3.2 | 0.00 | 0.00 | 0.00 | 64 | 1009.9 |
| 20260508034012 | 11 | 20 | 0.0 | 0.0 | 0.00 | 0.00 | 0.00 | 66 | 1009.8 |
| 20260508033510 | 11 | 20 | 0.0 | 0.0 | 0.00 | 0.00 | 0.00 | 66 | 1009.9 |
| 20260508033008 | 11 | 20 | 0.0 | 0.0 | 0.00 | 0.00 | 0.00 | 66 | 1009.7 |
| 20260508032504 | 11 | 20 | 0.0 | 0.0 | 0.00 | 0.00 | 0.00 | 66 | 1009.7 |
| 20260508032002 | 12 | 20 | 0.0 | 0.0 | 0.00 | 0.00 | 0.00 | 65 | 1009.8 |
| 20260508031459 | 12 | 20 | 1.6 | 1.6 | 0.00 | 0.00 | 0.00 | 65 | 1009.7 |
| 20260508030954 | 12 | 20 | 0.0 | 0.0 | 0.00 | 0.00 | 0.00 | 65 | 1009.8 |
| 20260508030451 | 12 | 20 | 0.0 | 0.0 | 0.00 | 0.00 | 0.00 | 63 | 1009.8 |
| 20260508025949 | 12 | 20 | 0.0 | 0.0 | 0.00 | 0.00 | 0.00 | 63 | 1009.6 |
| 20260508025445 | 13 | 20 | 0.0 | 1.6 | 0.00 | 0.00 | 0.00 | 60 | 1009.8 |
| 20260508024943 | 13 | 20 | 0.0 | 1.6 | 0.00 | 0.00 | 0.00 | 60 | 1009.6 |
| 20260508024438 | 13 | 19 | 0.0 | 1.6 | 0.00 | 0.00 | 0.00 | 60 | 1009.6 |
| 20260508023935 | 13 | 18 | 0.0 | 0.0 | 0.00 | 0.00 | 0.00 | 59 | 1009.7 |
| 20260508023432 | 13 | 18 | 1.6 | 1.6 | 0.00 | 0.00 | 0.00 | 58 | 1009.6 |
| 20260508022929 | 14 | 17 | 0.0 | 1.6 | 0.00 | 0.00 | 0.00 | 57 | 1009.6 |
| 20260508022425 | 14 | 19 | 0.0 | 1.6 | 0.00 | 0.00 | 0.00 | 56 | 1009.4 |
| 20260508021922 | 14 | 16 | 1.6 | 1.6 | 0.00 | 0.00 | 0.00 | 56 | 1009.3 |
| 20260508021418 | 14 | 17 | 1.6 | 3.2 | 0.00 | 0.00 | 0.00 | 56 | 1009.2 |
| 20260508020914 | 15 | 17 | 0.0 | 3.2 | 0.00 | 0.00 | 0.00 | 55 | 1009.2 |
| 20260508020412 | 14 | 1 | 0.0 | 1.6 | 0.00 | 0.00 | 0.00 | 56 | 1009.0 |
| 20260508015909 | 14 | 1 | 0.0 | 0.0 | 0.00 | 0.00 | 0.00 | 57 | 1009.0 |
| 20260508015407 | 15 | 1 | 0.0 | 0.0 | 0.00 | 0.00 | 0.00 | 58 | 1008.9 |
| 20260508014903 | 15 | 2 | 0.0 | 1.6 | 0.00 | 0.00 | 0.00 | 57 | 1008.7 |
| 20260508014400 | 15 | 7 | 0.0 | 0.0 | 0.00 | 0.00 | 0.00 | 56 | 1008.9 |
| 20260508013855 | 15 | 7 | 0.0 | 0.0 | 0.00 | 0.00 | 0.00 | 54 | 1008.7 |
| 20260508013352 | 15 | 8 | 1.6 | 3.2 | 0.00 | 0.00 | 0.00 | 53 | 1008.6 |
| 20260508012849 | 16 | 9 | 1.6 | 4.8 | 0.00 | 0.00 | 0.00 | 52 | 1008.5 |
| 20260508012346 | 16 | 5 | 4.8 | 4.8 | 0.00 | 0.00 | 0.00 | 51 | 1008.6 |
| 20260508011844 | 16 | 355 | 1.6 | 1.6 | 0.00 | 0.00 | 0.00 | 51 | 1008.6 |
| 20260508011342 | 16 | 27 | 3.2 | 11.3 | 0.00 | 0.00 | 0.00 | 49 | 1008.6 |
| 20260508010839 | 16 | 1 | 3.2 | 4.8 | 0.00 | 0.00 | 0.00 | 49 | 1008.4 |
| 20260508010336 | 17 | 359 | 1.6 | 4.8 | 0.00 | 0.00 | 0.00 | 49 | 1008.3 |
| 20260508005833 | 17 | 347 | 0.0 | 4.8 | 0.00 | 0.00 | 0.00 | 51 | 1008.3 |
| 20260508005330 | 17 | 337 | 0.0 | 1.6 | 0.00 | 0.00 | 0.00 | 49 | 1008.3 |
| 20260508004826 | 17 | 357 | 3.2 | 3.2 | 0.00 | 0.00 | 0.00 | 49 | 1008.2 |
| 20260508004322 | 17 | 7 | 4.8 | 12.9 | 0.00 | 0.00 | 0.00 | 48 | 1008.3 |
| 20260508003819 | 18 | 13 | 4.8 | 11.3 | 0.00 | 0.00 | 0.00 | 46 | 1008.0 |
| 20260508003316 | 18 | 29 | 4.8 | 11.3 | 0.00 | 0.00 | 0.00 | 46 | 1008.1 |
| 20260508002813 | 18 | 344 | 3.2 | 4.8 | 0.00 | 0.00 | 0.00 | 46 | 1008.0 |
| 20260508002309 | 18 | 9 | 1.6 | 4.8 | 0.00 | 0.00 | 0.00 | 44 | 1007.9 |
| 20260508001806 | 20 | 343 | 6.4 | 8.0 | 0.00 | 0.00 | 0.00 | 40 | 1007.8 |
| 20260508001301 | 20 | 283 | 0.0 | 0.0 | 0.00 | 0.00 | 0.00 | 41 | 1007.8 |
| 20260508000758 | 20 | 283 | 0.0 | 1.6 | 0.00 | 0.00 | 0.00 | 41 | 1007.7 |
| 20260508000257 | 20 | 271 | 0.0 | 1.6 | 0.00 | 0.00 | 0.00 | 40 | 1007.8 |
| 20260507235751 | 20 | 266 | 1.6 | 4.8 | 0.00 | 0.00 | 0.00 | 38 | 1007.8 |
| 20260507235249 | 20 | 272 | 0.0 | 3.2 | 0.00 | 0.00 | 0.00 | 38 | 1007.8 |
| 20260507234745 | 20 | 249 | 3.2 | 8.0 | 0.00 | 0.00 | 0.00 | 38 | 1007.8 |
| 20260507234242 | 20 | 242 | 3.2 | 3.2 | 0.00 | 0.00 | 0.00 | 40 | 1007.8 |
| 20260507233738 | 20 | 248 | 3.2 | 4.8 | 0.00 | 0.00 | 0.00 | 39 | 1008.0 |
| 20260507233237 | 20 | 208 | 4.8 | 8.0 | 0.00 | 0.00 | 0.00 | 40 | 1007.8 |
| 20260507232734 | 20 | 206 | 4.8 | 8.0 | 0.00 | 0.00 | 0.00 | 39 | 1007.9 |
| 20260507232231 | 20 | 222 | 3.2 | 4.8 | 0.00 | 0.00 | 0.00 | 39 | 1007.9 |
| 20260507231727 | 20 | 275 | 1.6 | 3.2 | 0.00 | 0.00 | 0.00 | 39 | 1008.0 |
| 20260507231224 | 20 | 240 | 4.8 | 4.8 | 0.00 | 0.00 | 0.00 | 39 | 1007.9 |
| 20260507230721 | 20 | 201 | 4.8 | 9.7 | 0.00 | 0.00 | 0.00 | 39 | 1008.2 |
| 20260507230219 | 20 | 235 | 6.4 | 14.5 | 0.00 | 0.00 | 0.00 | 37 | 1008.0 |
| 20260507225717 | 20 | 238 | 8.0 | 12.9 | 0.00 | 0.00 | 0.00 | 36 | 1007.9 |
| 20260507225214 | 20 | 265 | 1.6 | 4.8 | 0.00 | 0.00 | 0.00 | 39 | 1008.0 |
| 20260507224710 | 20 | 216 | 4.8 | 9.7 | 0.00 | 0.00 | 0.00 | 39 | 1008.0 |
| 20260507224207 | 20 | 253 | 6.4 | 11.3 | 0.00 | 0.00 | 0.00 | 38 | 1008.3 |
| 20260507223703 | 20 | 202 | 8.0 | 12.9 | 0.00 | 0.00 | 0.00 | 37 | 1008.4 |
| 20260507223200 | 20 | 235 | 3.2 | 9.7 | 0.00 | 0.00 | 0.00 | 38 | 1008.4 |
| 20260507222657 | 20 | 204 | 8.0 | 12.9 | 0.00 | 0.00 | 0.00 | 36 | 1008.3 |
| 20260507222153 | 20 | 240 | 6.4 | 11.3 | 0.00 | 0.00 | 0.00 | 37 | 1008.4 |
| 20260507221650 | 20 | 270 | 9.7 | 16.1 | 0.00 | 0.00 | 0.00 | 35 | 1008.5 |
| 20260507221146 | 20 | 224 | 9.7 | 16.1 | 0.00 | 0.00 | 0.00 | 35 | 1008.5 |
| 20260507220643 | 21 | 256 | 8.0 | 17.7 | 0.00 | 0.00 | 0.00 | 36 | 1008.3 |
| 20260507220141 | 21 | 218 | 8.0 | 12.9 | 0.00 | 0.00 | 0.00 | 37 | 1008.3 |
| 20260507215637 | 20 | 230 | 6.4 | 9.7 | 0.00 | 0.00 | 0.00 | 36 | 1008.5 |
| 20260507215135 | 20 | 236 | 11.3 | 17.7 | 0.00 | 0.00 | 0.00 | 35 | 1008.5 |
| 20260507214632 | 19 | 246 | 4.8 | 12.9 | 0.00 | 0.00 | 0.00 | 37 | 1008.6 |
| 20260507214128 | 20 | 236 | 6.4 | 9.7 | 0.00 | 0.00 | 0.00 | 38 | 1008.6 |
| 20260507213625 | 20 | 253 | 6.4 | 9.7 | 0.00 | 0.00 | 0.00 | 36 | 1008.7 |
| 20260507213122 | 20 | 201 | 8.0 | 11.3 | 0.00 | 0.00 | 0.00 | 38 | 1008.7 |
| 20260507212618 | 20 | 221 | 14.5 | 22.5 | 0.00 | 0.00 | 0.00 | 36 | 1008.7 |
| 20260507212114 | 20 | 227 | 8.0 | 20.9 | 0.00 | 0.00 | 0.00 | 36 | 1008.6 |
| 20260507211611 | 20 | 273 | 9.7 | 12.9 | 0.00 | 0.00 | 0.00 | 36 | 1008.7 |
| 20260507211107 | 19 | 223 | 4.8 | 14.5 | 0.00 | 0.00 | 0.00 | 38 | 1008.8 |
| 20260507210605 | 20 | 266 | 9.7 | 17.7 | 0.00 | 0.00 | 0.00 | 38 | 1009.0 |
| 20260507205558 | 20 | 194 | 6.4 | 14.5 | 0.00 | 0.00 | 0.00 | 36 | 1008.9 |
| 20260507205054 | 20 | 206 | 9.7 | 22.5 | 0.00 | 0.00 | 0.00 | 37 | 1009.2 |
| 20260507204550 | 20 | 245 | 6.4 | 14.5 | 0.00 | 0.00 | 0.00 | 38 | 1009.0 |
| 20260507204048 | 20 | 205 | 11.3 | 14.5 | 0.00 | 0.00 | 0.00 | 38 | 1009.0 |
| 20260507203546 | 20 | 228 | 8.0 | 16.1 | 0.00 | 0.00 | 0.00 | 37 | 1009.3 |
| 20260507203043 | 19 | 233 | 9.7 | 11.3 | 0.00 | 0.00 | 0.00 | 38 | 1009.3 |
| 20260507202539 | 19 | 243 | 4.8 | 9.7 | 0.00 | 0.00 | 0.00 | 36 | 1009.4 |
| 20260507202035 | 20 | 238 | 8.0 | 17.7 | 0.00 | 0.00 | 0.00 | 36 | 1009.4 |
| 20260507201531 | 20 | 217 | 12.9 | 17.7 | 0.00 | 0.00 | 0.00 | 37 | 1009.4 |
| 20260507201027 | 20 | 223 | 11.3 | 17.7 | 0.00 | 0.00 | 0.00 | 38 | 1009.5 |
| 20260507200523 | 20 | 244 | 9.7 | 12.9 | 0.00 | 0.00 | 0.00 | 36 | 1009.4 |
| 20260507200019 | 20 | 200 | 12.9 | 27.4 | 0.00 | 0.00 | 0.00 | 37 | 1009.6 |
| 20260507195516 | 19 | 222 | 9.7 | 12.9 | 0.00 | 0.00 | 0.00 | 36 | 1009.7 |
| 20260507195014 | 19 | 261 | 6.4 | 11.3 | 0.00 | 0.00 | 0.00 | 35 | 1009.6 |
| 20260507194510 | 20 | 294 | 11.3 | 16.1 | 0.00 | 0.00 | 0.00 | 34 | 1009.7 |
| 20260507194006 | 20 | 244 | 11.3 | 16.1 | 0.00 | 0.00 | 0.00 | 35 | 1009.7 |
| 20260507193504 | 20 | 269 | 9.7 | 14.5 | 0.00 | 0.00 | 0.00 | 35 | 1009.9 |
| 20260507193000 | 19 | 276 | 8.0 | 16.1 | 0.00 | 0.00 | 0.00 | 34 | 1009.8 |
| 20260507192456 | 19 | 275 | 8.0 | 12.9 | 0.00 | 0.00 | 0.00 | 35 | 1009.9 |
| 20260507191953 | 20 | 238 | 4.8 | 11.3 | 0.00 | 0.00 | 0.00 | 35 | 1009.8 |
| 20260507191449 | 20 | 289 | 14.5 | 20.9 | 0.00 | 0.00 | 0.00 | 39 | 1010.3 |
| 20260507190946 | 19 | 245 | 3.2 | 14.5 | 0.00 | 0.00 | 0.00 | 37 | 1009.7 |
| 20260507190444 | 18 | 223 | 6.4 | 14.5 | 0.00 | 0.00 | 0.00 | 36 | 1009.9 |
| 20260507185942 | 19 | 288 | 8.0 | 20.9 | 0.00 | 0.00 | 0.00 | 36 | 1009.9 |
| 20260507185439 | 18 | 258 | 8.0 | 12.9 | 0.00 | 0.00 | 0.00 | 38 | 1010.2 |
| 20260507184936 | 18 | 254 | 9.7 | 17.7 | 0.00 | 0.00 | 0.00 | 36 | 1010.2 |
| 20260507184434 | 18 | 252 | 8.0 | 16.1 | 0.00 | 0.00 | 0.00 | 37 | 1010.2 |
| 20260507183932 | 18 | 257 | 4.8 | 9.7 | 0.00 | 0.00 | 0.00 | 39 | 1010.2 |
| 20260507183428 | 18 | 278 | 9.7 | 11.3 | 0.00 | 0.00 | 0.00 | 37 | 1010.0 |
| 20260507182925 | 18 | 308 | 4.8 | 14.5 | 0.00 | 0.00 | 0.00 | 38 | 1010.4 |
| 20260507182421 | 18 | 300 | 4.8 | 9.7 | 0.00 | 0.00 | 0.00 | 40 | 1010.2 |
| 20260507181918 | 18 | 260 | 8.0 | 14.5 | 0.00 | 0.00 | 0.00 | 40 | 1010.3 |
| 20260507181414 | 18 | 261 | 8.0 | 12.9 | 0.00 | 0.00 | 0.00 | 40 | 1010.3 |
| 20260507180910 | 17 | 257 | 3.2 | 17.7 | 0.00 | 0.00 | 0.00 | 41 | 1010.7 |
| 20260507180407 | 18 | 223 | 4.8 | 17.7 | 0.00 | 0.00 | 0.00 | 40 | 1010.5 |
| 20260507175903 | 18 | 249 | 11.3 | 14.5 | 0.00 | 0.00 | 0.00 | 43 | 1010.6 |
| 20260507175400 | 18 | 248 | 4.8 | 14.5 | 0.00 | 0.00 | 0.00 | 43 | 1010.7 |
| 20260507174858 | 18 | 252 | 4.8 | 16.1 | 0.00 | 0.00 | 0.00 | 43 | 1010.8 |
| 20260507174355 | 19 | 295 | 8.0 | 9.7 | 0.00 | 0.00 | 0.00 | 44 | 1010.8 |
| 20260507173852 | 18 | 322 | 8.0 | 20.9 | 0.00 | 0.00 | 0.00 | 46 | 1011.0 |
| 20260507173349 | 17 | 230 | 4.8 | 8.0 | 0.00 | 0.00 | 0.00 | 47 | 1011.3 |
| 20260507172845 | 17 | 288 | 4.8 | 14.5 | 0.00 | 0.00 | 0.00 | 49 | 1011.2 |
| 20260507172342 | 17 | 211 | 8.0 | 12.9 | 0.00 | 0.00 | 0.00 | 48 | 1011.2 |
| 20260507171838 | 17 | 333 | 9.7 | 16.1 | 0.00 | 0.00 | 0.00 | 48 | 1011.3 |
| 20260507171335 | 17 | 216 | 6.4 | 12.9 | 0.00 | 0.00 | 0.00 | 47 | 1011.6 |
| 20260507170832 | 17 | 243 | 3.2 | 8.0 | 0.00 | 0.00 | 0.00 | 50 | 1011.6 |
| 20260507170329 | 16 | 253 | 6.4 | 9.7 | 0.00 | 0.00 | 0.00 | 51 | 1011.7 |
| 20260507165824 | 16 | 213 | 8.0 | 11.3 | 0.00 | 0.00 | 0.00 | 53 | 1011.9 |
| 20260507165321 | 16 | 262 | 3.2 | 4.8 | 0.00 | 0.00 | 0.00 | 52 | 1012.0 |
| 20260507164817 | 16 | 230 | 4.8 | 12.9 | 0.00 | 0.00 | 0.00 | 54 | 1011.7 |
| 20260507164314 | 16 | 234 | 6.4 | 11.3 | 0.00 | 0.00 | 0.00 | 53 | 1012.1 |
| 20260507163811 | 15 | 241 | 8.0 | 11.3 | 0.00 | 0.00 | 0.00 | 54 | 1012.1 |
| 20260507163309 | 15 | 239 | 6.4 | 17.7 | 0.00 | 0.00 | 0.00 | 56 | 1012.1 |
| 20260507162805 | 15 | 216 | 8.0 | 14.5 | 0.00 | 0.00 | 0.00 | 55 | 1012.0 |
| 20260507162300 | 16 | 239 | 3.2 | 4.8 | 0.00 | 0.00 | 0.00 | 55 | 1012.2 |
| 20260507161758 | 16 | 255 | 1.6 | 4.8 | 0.00 | 0.00 | 0.00 | 55 | 1012.3 |
| 20260507161254 | 14 | 256 | 1.6 | 9.7 | 0.00 | 0.00 | 0.00 | 59 | 1012.3 |
| 20260507160750 | 13 | 253 | 8.0 | 11.3 | 0.00 | 0.00 | 0.00 | 58 | 1012.3 |
| 20260507160247 | 14 | 240 | 4.8 | 11.3 | 0.00 | 0.00 | 0.00 | 60 | 1012.4 |
| 20260507155743 | 14 | 295 | 6.4 | 9.7 | 0.00 | 0.00 | 0.00 | 56 | 1012.4 |
| 20260507155239 | 14 | 237 | 3.2 | 9.7 | 0.00 | 0.00 | 0.00 | 59 | 1012.6 |
| 20260507154736 | 14 | 290 | 11.3 | 14.5 | 0.00 | 0.00 | 0.00 | 58 | 1012.7 |
| 20260507154233 | 13 | 265 | 4.8 | 11.3 | 0.00 | 0.00 | 0.00 | 62 | 1012.6 |
| 20260507153730 | 13 | 251 | 3.2 | 4.8 | 0.00 | 0.00 | 0.00 | 67 | 1012.6 |
| 20260507153226 | 13 | 251 | 4.8 | 9.7 | 0.00 | 0.00 | 0.00 | 64 | 1012.6 |
| 20260507152723 | 12 | 217 | 1.6 | 4.8 | 0.00 | 0.00 | 0.00 | 68 | 1012.5 |
| 20260507152219 | 12 | 244 | 4.8 | 8.0 | 0.00 | 0.00 | 0.00 | 67 | 1012.4 |
| 20260507151715 | 12 | 250 | 3.2 | 3.2 | 0.00 | 0.00 | 0.00 | 69 | 1012.5 |
| 20260507151212 | 11 | 195 | 4.8 | 9.7 | 0.00 | 0.00 | 0.00 | 70 | 1012.0 |
| 20260507150709 | 11 | 43 | 3.2 | 3.2 | 0.00 | 0.00 | 0.00 | 74 | 1012.4 |
| 20260507150206 | 10 | 46 | 4.8 | 4.8 | 0.00 | 0.00 | 0.00 | 75 | 1012.7 |
| 20260507145701 | 10 | 15 | 3.2 | 3.2 | 0.00 | 0.00 | 0.00 | 75 | 1013.1 |
| 20260507145158 | 10 | 341 | 8.0 | 11.3 | 0.00 | 0.00 | 0.00 | 75 | 1013.3 |
| 20260507144654 | 10 | 12 | 4.8 | 11.3 | 0.00 | 0.00 | 0.00 | 75 | 1013.3 |
| 20260507144153 | 10 | 349 | 4.8 | 9.7 | 0.00 | 0.00 | 0.00 | 75 | 1013.2 |
| 20260507143650 | 10 | 33 | 8.0 | 11.3 | 0.00 | 0.00 | 0.00 | 73 | 1013.1 |
| 20260507143147 | 11 | 1 | 6.4 | 9.7 | 0.00 | 0.00 | 0.00 | 72 | 1013.2 |
| 20260507142642 | 11 | 339 | 8.0 | 11.3 | 0.00 | 0.00 | 0.00 | 72 | 1013.3 |
| 20260507142139 | 11 | 345 | 3.2 | 8.0 | 0.00 | 0.00 | 0.00 | 72 | 1013.2 |
| 20260507141635 | 11 | 349 | 4.8 | 8.0 | 0.00 | 0.00 | 0.00 | 71 | 1013.2 |
| 20260507141132 | 11 | 316 | 4.8 | 9.7 | 0.00 | 0.00 | 0.00 | 70 | 1013.0 |
| 20260507140629 | 10 | 288 | 4.8 | 8.0 | 0.00 | 0.00 | 0.00 | 70 | 1013.1 |
| 20260507140126 | 11 | 265 | 4.8 | 8.0 | 0.00 | 0.00 | 0.00 | 70 | 1013.1 |
| 20260507135623 | 10 | 266 | 3.2 | 8.0 | 0.00 | 0.00 | 0.00 | 70 | 1013.1 |
| 20260507135121 | 10 | 303 | 6.4 | 12.9 | 0.00 | 0.00 | 0.00 | 69 | 1012.9 |
| 20260507134616 | 10 | 287 | 1.6 | 4.8 | 0.00 | 0.00 | 0.00 | 71 | 1012.9 |
| 20260507134113 | 10 | 235 | 8.0 | 11.3 | 0.00 | 0.00 | 0.00 | 70 | 1012.7 |
| 20260507133609 | 10 | 226 | 6.4 | 12.9 | 0.00 | 0.00 | 0.00 | 71 | 1012.8 |
| 20260507133107 | 10 | 226 | 11.3 | 16.1 | 0.00 | 0.00 | 0.00 | 71 | 1012.7 |
| 20260507132603 | 9 | 216 | 9.7 | 12.9 | 0.00 | 0.00 | 0.00 | 71 | 1012.5 |
| 20260507132100 | 9 | 251 | 4.8 | 11.3 | 0.00 | 0.00 | 0.00 | 72 | 1012.6 |
| 20260507131557 | 9 | 240 | 4.8 | 11.3 | 0.00 | 0.00 | 0.00 | 72 | 1012.6 |
| 20260507131054 | 9 | 245 | 8.0 | 11.3 | 0.00 | 0.00 | 0.00 | 72 | 1012.6 |
| 20260507130551 | 9 | 255 | 6.4 | 8.0 | 0.00 | 0.00 | 0.00 | 72 | 1012.6 |
| 20260507130049 | 9 | 237 | 4.8 | 16.1 | 0.00 | 0.00 | 0.00 | 72 | 1012.6 |
| 20260507125547 | 8 | 213 | 4.8 | 11.3 | 0.00 | 0.00 | 0.00 | 73 | 1012.5 |
| 20260507125044 | 8 | 242 | 8.0 | 11.3 | 0.00 | 0.00 | 0.00 | 72 | 1012.4 |
| 20260507124540 | 8 | 220 | 8.0 | 12.9 | 0.00 | 0.00 | 0.00 | 72 | 1012.3 |
| 20260507124038 | 8 | 217 | 9.7 | 12.9 | 0.00 | 0.00 | 0.00 | 71 | 1012.4 |
| 20260507123536 | 8 | 197 | 8.0 | 12.9 | 0.00 | 0.00 | 0.00 | 71 | 1012.3 |
| 20260507123033 | 7 | 211 | 6.4 | 11.3 | 0.00 | 0.00 | 0.00 | 72 | 1012.4 |
| 20260507122528 | 7 | 208 | 8.0 | 9.7 | 0.00 | 0.00 | 0.00 | 74 | 1012.3 |
| 20260507122024 | 7 | 206 | 8.0 | 11.3 | 0.00 | 0.00 | 0.00 | 74 | 1012.3 |
| 20260507121520 | 7 | 219 | 6.4 | 9.7 | 0.00 | 0.00 | 0.00 | 74 | 1012.3 |
| 20260507121016 | 6 | 203 | 6.4 | 8.0 | 0.00 | 0.00 | 0.00 | 73 | 1012.2 |
| 20260507120512 | 6 | 215 | 4.8 | 9.7 | 0.00 | 0.00 | 0.00 | 73 | 1012.4 |
| 20260507120010 | 6 | 220 | 6.4 | 8.0 | 0.00 | 0.00 | 0.00 | 73 | 1012.2 |
| 20260507115505 | 6 | 208 | 6.4 | 8.0 | 0.00 | 0.00 | 0.00 | 74 | 1012.3 |
| 20260507115001 | 5 | 216 | 6.4 | 9.7 | 0.00 | 0.00 | 0.00 | 74 | 1012.3 |
| 20260507114458 | 5 | 225 | 8.0 | 9.7 | 0.00 | 0.00 | 0.00 | 74 | 1012.3 |
| 20260507113955 | 5 | 224 | 4.8 | 8.0 | 0.00 | 0.00 | 0.00 | 73 | 1012.1 |
| 20260507113452 | 5 | 224 | 6.4 | 9.7 | 0.00 | 0.00 | 0.00 | 74 | 1012.3 |
| 20260507112949 | 5 | 218 | 4.8 | 8.0 | 0.00 | 0.00 | 0.00 | 73 | 1012.2 |
| 20260507112447 | 5 | 239 | 4.8 | 8.0 | 0.00 | 0.00 | 0.00 | 73 | 1012.3 |
| 20260507111943 | 5 | 219 | 6.4 | 9.7 | 0.00 | 0.00 | 0.00 | 73 | 1012.2 |
| 20260507111441 | 5 | 221 | 6.4 | 9.7 | 0.00 | 0.00 | 0.00 | 72 | 1012.1 |
| 20260507110937 | 5 | 209 | 6.4 | 8.0 | 0.00 | 0.00 | 0.00 | 72 | 1012.0 |
| 20260507110433 | 5 | 218 | 8.0 | 11.3 | 0.00 | 0.00 | 0.00 | 71 | 1012.1 |
| 20260507105930 | 5 | 222 | 6.4 | 11.3 | 0.00 | 0.00 | 0.00 | 71 | 1012.1 |
| 20260507105427 | 5 | 218 | 8.0 | 9.7 | 0.00 | 0.00 | 0.00 | 71 | 1012.1 |
| 20260507104923 | 5 | 218 | 4.8 | 9.7 | 0.00 | 0.00 | 0.00 | 70 | 1012.2 |
| 20260507104421 | 5 | 223 | 6.4 | 9.7 | 0.00 | 0.00 | 0.00 | 69 | 1012.1 |
| 20260507103916 | 5 | 217 | 6.4 | 9.7 | 0.00 | 0.00 | 0.00 | 69 | 1012.3 |
| 20260507103413 | 5 | 217 | 6.4 | 9.7 | 0.00 | 0.00 | 0.00 | 69 | 1012.3 |
| 20260507102909 | 5 | 209 | 6.4 | 9.7 | 0.00 | 0.00 | 0.00 | 69 | 1012.4 |
| 20260507102406 | 5 | 224 | 4.8 | 9.7 | 0.00 | 0.00 | 0.00 | 68 | 1012.6 |
| 20260507101902 | 5 | 218 | 6.4 | 9.7 | 0.00 | 0.00 | 0.00 | 68 | 1012.4 |
| 20260507101402 | 5 | 222 | 3.2 | 4.8 | 0.00 | 0.00 | 0.00 | 68 | 1012.5 |
| 20260507100859 | 5 | 206 | 3.2 | 3.2 | 0.00 | 0.00 | 0.00 | 68 | 1012.5 |
| 20260507100357 | 5 | 199 | 3.2 | 4.8 | 0.00 | 0.00 | 0.00 | 68 | 1012.7 |
| 20260507095855 | 5 | 192 | 1.6 | 8.0 | 0.00 | 0.00 | 0.00 | 67 | 1012.6 |
| 20260507095351 | 5 | 219 | 1.6 | 3.2 | 0.00 | 0.00 | 0.00 | 67 | 1012.9 |
| 20260507094849 | 5 | 213 | 1.6 | 3.2 | 0.00 | 0.00 | 0.00 | 66 | 1012.8 |
| 20260507094345 | 6 | 196 | 1.6 | 4.8 | 0.00 | 0.00 | 0.00 | 65 | 1012.8 |
| 20260507093842 | 6 | 221 | 1.6 | 3.2 | 0.00 | 0.00 | 0.00 | 65 | 1012.9 |
| 20260507093340 | 6 | 216 | 3.2 | 4.8 | 0.00 | 0.00 | 0.00 | 64 | 1012.9 |
| 20260507092839 | 6 | 227 | 3.2 | 3.2 | 0.00 | 0.00 | 0.00 | 64 | 1012.9 |